CW1767 Weather Reports


time (UTC)temp
C
wind
direction
speed
KPH
gust
KPH
rain 1hr
cm
rain 24hr
cm
rain mn
cm
humidity
%
barometer
mb
20260504100106 9 123 0.0 0.0 0.00 0.00 0.00 86 1015.4
20260504081546 8 123 0.0 0.0 0.00 0.00 0.00 85 1016.5
20260504050023 6 123 0.0 0.0 0.00 0.00 0.00 77 1016.5
20260504044530 6 123 0.0 0.0 0.00 0.00 0.00 76 1016.4
20260504043026 6 123 0.0 0.0 0.00 0.00 0.00 76 1016.4
20260504041522 6 123 0.0 0.0 0.00 0.00 0.00 76 1016.4
20260504040017 6 123 0.0 0.0 0.00 0.00 0.00 76 1016.1
20260504034517 6 123 0.0 0.0 0.00 0.00 0.00 76 1016.0
20260504033015 6 123 0.0 0.0 0.00 0.00 0.00 75 1015.7
20260504031513 6 123 0.0 0.0 0.00 0.00 0.00 75 1015.8
20260504030030 6 123 0.0 0.0 0.00 0.00 0.00 73 1015.6
20260504024510 7 123 0.0 0.0 0.00 0.00 0.00 72 1015.6
20260504023008 7 123 0.0 0.0 0.00 0.00 0.00 71 1015.5
20260504021507 7 123 0.0 0.0 0.00 0.00 0.00 69 1015.6
20260504020007 7 123 0.0 0.0 0.00 0.00 0.00 66 1015.5
20260504014519 8 123 0.0 0.0 0.00 0.00 0.00 65 1015.4
20260504013006 8 123 0.0 0.0 0.00 0.00 0.00 63 1015.3
20260504011505 9 123 0.0 0.0 0.00 0.00 0.00 60 1015.2
20260504010006 10 123 0.0 0.0 0.00 0.00 0.00 59 1015.0
20260504004510 10 123 0.0 0.0 0.00 0.00 0.00 56 1015.0
20260504003014 11 123 0.0 0.0 0.00 0.00 0.00 53 1014.8
20260504001505 11 123 0.0 0.0 0.00 0.00 0.00 51 1014.4
20260504000004 12 123 0.0 0.0 0.00 0.00 0.00 46 1014.4
20260503234511 13 123 0.0 0.0 0.00 0.00 0.00 43 1014.3
20260503233004 14 123 0.0 0.0 0.00 0.00 0.00 41 1014.3
20260503231503 15 123 0.0 1.6 0.00 0.00 0.00 39 1014.4
20260503230002 15 124 0.0 1.6 0.00 0.00 0.00 39 1014.3
20260503224502 15 124 0.0 3.2 0.00 0.00 0.00 37 1014.3
20260503223002 15 138 0.0 9.7 0.00 0.00 0.00 38 1014.2
20260503221503 15 117 1.6 6.4 0.00 0.00 0.00 36 1014.3
20260503220000 15 117 1.6 12.9 0.00 0.00 0.00 36 1014.4
20260503214601 15 126 3.2 11.3 0.00 0.00 0.00 35 1014.1
20260503213109 15 123 1.6 9.7 0.00 0.00 0.00 36 1014.1
20260503211559 15 113 4.8 12.9 0.00 0.00 0.00 36 1014.1
20260503210111 15 111 3.2 9.7 0.00 0.00 0.00 37 1014.1
20260503204608 15 122 1.6 4.8 0.00 0.00 0.00 36 1013.9
20260503203104 14 142 3.2 12.9 0.00 0.00 0.00 36 1014.2
20260503201604 14 106 3.2 14.5 0.00 0.00 0.00 36 1014.4
20260503200101 15 143 1.6 11.3 0.00 0.00 0.00 36 1014.4
20260503194556 15 126 6.4 12.9 0.00 0.00 0.00 35 1014.7
20260503193100 15 109 3.2 12.9 0.00 0.00 0.00 37 1014.6
20260503191617 15 136 4.8 12.9 0.00 0.00 0.00 35 1014.8
20260503190053 14 101 3.2 9.7 0.00 0.00 0.00 35 1014.8
20260503184559 14 119 3.2 12.9 0.00 0.00 0.00 35 1014.9
20260503183110 13 131 4.8 12.9 0.00 0.00 0.00 35 1015.2
20260503181549 13 143 4.8 12.9 0.00 0.00 0.00 36 1015.5
20260503180049 13 118 3.2 12.9 0.00 0.00 0.00 37 1015.3
20260503174547 13 121 1.6 12.9 0.00 0.00 0.00 38 1015.2
20260503173111 13 174 4.8 11.3 0.00 0.00 0.00 38 1015.4
20260503171548 13 110 6.4 14.5 0.00 0.00 0.00 39 1015.3